,,PA_Meas_PMT16A,,PR_Meas_QMR101_102,,RH_Meas_QMH101,,SR_Meas_QMS101,,TA_Meas_QMH101,,GenWind,,GenWind,
time,status,PA,status,PR,status,RH,status,SR,status,TA,status,DirAvg,status,SpdAvg,
2014-11-20, 00:00:04,VALID,917.823,VALID,0,VALID,96.0093,VALID,0,VALID,20.7755,VALID,128,VALID,1.33672,
2014-11-20, 00:01:04,VALID,917.803,VALID,0,VALID,96.0855,VALID,0,VALID,20.756,VALID,130,VALID,0.722656,
2014-11-20, 00:02:04,VALID,917.782,VALID,0,VALID,96.1694,VALID,0,VALID,20.7365,VALID,139,VALID,1.34766,
2014-11-20, 00:03:04,VALID,917.796,VALID,0,VALID,96.2533,VALID,0,VALID,20.717,VALID,125,VALID,0.357031,
2014-11-20, 00:04:04,VALID,917.814,VALID,0,VALID,96.3219,VALID,0,VALID,20.6975,VALID,118,VALID,1.1957,
2014-11-20, 00:05:04,VALID,917.765,VALID,0,VALID,96.3829,VALID,0,VALID,20.699,VALID,140,VALID,1.07227,
2014-11-20, 00:06:04,VALID,917.781,VALID,0,VALID,96.3981,VALID,0,VALID,20.678,VALID,141,VALID,1.42383,
2014-11-20, 00:07:04,VALID,917.75,VALID,0,VALID,96.421,VALID,0,VALID,20.678,VALID,153,VALID,1.06445,
2014-11-20, 00:08:04,VALID,917.769,VALID,0,VALID,96.4362,VALID,0,VALID,20.6585,VALID,141,VALID,0.823828,
2014-11-20, 00:09:04,VALID,917.722,VALID,0,VALID,96.4057,VALID,0,VALID,20.6585,VALID,154,VALID,1.22695,
2014-11-20, 00:10:04,VALID,917.708,VALID,0,VALID,96.3752,VALID,0,VALID,20.678,VALID,155,VALID,0.811719,
2014-11-20, 00:11:04,VALID,917.695,VALID,0,VALID,96.3829,VALID,0,VALID,20.6585,VALID,154,VALID,0.674609,
2014-11-20, 00:12:04,VALID,917.668,VALID,0,VALID,96.3676,VALID,0,VALID,20.639,VALID,154,VALID,0.976563,
2014-11-20, 00:13:04,VALID,917.686,VALID,0,VALID,96.36,VALID,0,VALID,20.639,VALID,146,VALID,1.05859,
2014-11-20, 00:14:04,VALID,917.654,VALID,0,VALID,96.36,VALID,0,VALID,20.639,VALID,149,VALID,0.833203,
2014-11-20, 00:15:04,VALID,917.646,VALID,0,VALID,96.3447,VALID,0,VALID,20.6405,VALID,149,VALID,0.377344,
2014-11-20, 00:16:04,VALID,917.67,VALID,0,VALID,96.36,VALID,0,VALID,20.6194,VALID,144,VALID,0.594531,
2014-11-20, 00:17:04,VALID,917.618,VALID,0,VALID,96.3752,VALID,0,VALID,20.5999,VALID,157,VALID,0.592969,
2014-11-20, 00:18:04,VALID,917.623,VALID,0,VALID,96.3676,VALID,0,VALID,20.621,VALID,131,VALID,0.490234,
2014-11-20, 00:19:04,VALID,917.607,VALID,0,VALID,96.3752,VALID,0,VALID,20.621,VALID,133,VALID,0.0761719,
2014-11-20, 00:20:04,VALID,917.579,VALID,0,VALID,96.3829,VALID,0,VALID,20.5804,VALID,134,VALID,0,
2014-11-20, 00:21:04,VALID,917.562,VALID,0,VALID,96.3905,VALID,0,VALID,20.5804,VALID,133,VALID,0,
2014-11-20, 00:22:04,VALID,917.547,VALID,0,VALID,96.4133,VALID,0,VALID,20.5594,VALID,145,VALID,0,
2014-11-20, 00:23:04,VALID,917.529,VALID,0,VALID,96.4362,VALID,0.107441,VALID,20.5999,VALID,154,VALID,0,
2014-11-20, 00:24:04,VALID,917.529,VALID,0,VALID,96.4286,VALID,0,VALID,20.5609,VALID,169,VALID,0.333594,
2014-11-20, 00:25:04,VALID,917.499,VALID,0,VALID,96.3905,VALID,0,VALID,20.5594,VALID,169,VALID,0,
2014-11-20, 00:26:04,VALID,917.512,VALID,0,VALID,96.3981,VALID,0,VALID,20.5594,VALID,168,VALID,0,
2014-11-20, 00:27:04,VALID,917.528,VALID,0,VALID,96.3752,VALID,0,VALID,20.5609,VALID,162,VALID,0.321875,
2014-11-20, 00:28:04,VALID,917.532,VALID,0,VALID,96.3524,VALID,0,VALID,20.5609,VALID,139,VALID,0.537891,
2014-11-20, 00:29:04,VALID,917.527,VALID,0,VALID,96.3142,VALID,0,VALID,20.5414,VALID,157,VALID,1.09023,
2014-11-20, 00:30:04,VALID,917.533,VALID,0,VALID,96.2533,VALID,0,VALID,20.5414,VALID,143,VALID,1.18125,
2014-11-20, 00:31:04,VALID,917.558,VALID,0,VALID,96.2228,VALID,0,VALID,20.5414,VALID,139,VALID,0.730859,
2014-11-20, 00:32:04,VALID,917.562,VALID,0,VALID,96.177,VALID,0,VALID,20.5609,VALID,148,VALID,0.591797,
2014-11-20, 00:33:04,VALID,917.559,VALID,0,VALID,96.0932,VALID,0,VALID,20.5414,VALID,141,VALID,0.776953,
2014-11-20, 00:34:04,VALID,917.599,VALID,0,VALID,96.0093,VALID,0,VALID,20.5414,VALID,155,VALID,0.955859,
2014-11-20, 00:35:04,VALID,917.628,VALID,0,VALID,95.9407,VALID,0,VALID,20.5414,VALID,150,VALID,1.73633,
2014-11-20, 00:36:04,VALID,917.629,VALID,0,VALID,95.8111,VALID,0,VALID,20.5609,VALID,142,VALID,1.02344,
2014-11-20, 00:37:04,VALID,917.663,VALID,0,VALID,95.7349,VALID,0,VALID,20.5609,VALID,133,VALID,1.09844,
2014-11-20, 00:38:04,VALID,917.652,VALID,0,VALID,95.6434,VALID,0,VALID,20.5609,VALID,127,VALID,1.43984,
2014-11-20, 00:39:04,VALID,917.7,VALID,0,VALID,95.6129,VALID,0,VALID,20.5399,VALID,123,VALID,0.944922,
2014-11-20, 00:40:04,VALID,917.71,VALID,0,VALID,95.5824,VALID,0,VALID,20.5414,VALID,135,VALID,1.22852,
2014-11-20, 00:41:04,VALID,917.701,VALID,0,VALID,95.5824,VALID,0,VALID,20.5414,VALID,133,VALID,1.42109,
2014-11-20, 00:42:04,VALID,917.716,VALID,0,VALID,95.6281,VALID,0,VALID,20.5219,VALID,137,VALID,1.49531,
2014-11-20, 00:43:04,VALID,917.736,VALID,0,VALID,95.6815,VALID,0,VALID,20.5219,VALID,134,VALID,1.27266,
2014-11-20, 00:44:04,VALID,917.709,VALID,0,VALID,95.7196,VALID,0,VALID,20.5414,VALID,136,VALID,1.44453,
2014-11-20, 00:45:04,VALID,917.746,VALID,0,VALID,95.7577,VALID,0,VALID,20.5414,VALID,130,VALID,1.3043,
2014-11-20, 00:46:04,VALID,917.744,VALID,0,VALID,95.7882,VALID,0,VALID,20.5804,VALID,135,VALID,1.31562,
2014-11-20, 00:47:04,VALID,917.728,VALID,0,VALID,95.7882,VALID,0,VALID,20.5804,VALID,122,VALID,1.0582,
2014-11-20, 00:48:04,VALID,917.732,VALID,0,VALID,95.8111,VALID,0,VALID,20.5399,VALID,143,VALID,1.19805,
2014-11-20, 00:49:04,VALID,917.702,VALID,0,VALID,95.8645,VALID,0.107441,VALID,20.5609,VALID,132,VALID,1.00781,
2014-11-20, 00:50:04,VALID,917.686,VALID,0,VALID,95.895,VALID,0,VALID,20.5609,VALID,139,VALID,1.41562,
2014-11-20, 00:51:04,VALID,917.68,VALID,0,VALID,95.9178,VALID,0.107441,VALID,20.5609,VALID,133,VALID,1.42656,
2014-11-20, 00:52:04,VALID,917.665,VALID,0,VALID,95.9483,VALID,0,VALID,20.5399,VALID,148,VALID,1.33867,
2014-11-20, 00:53:04,VALID,917.656,VALID,0,VALID,95.9636,VALID,0,VALID,20.5609,VALID,131,VALID,1.71133,
2014-11-20, 00:54:04,VALID,917.623,VALID,0,VALID,95.9559,VALID,0,VALID,20.621,VALID,148,VALID,1.32656,
2014-11-20, 00:55:04,VALID,917.627,VALID,0,VALID,95.895,VALID,0,VALID,20.5984,VALID,136,VALID,1.275,
2014-11-20, 00:56:04,VALID,917.623,VALID,0,VALID,95.7654,VALID,0.107441,VALID,20.639,VALID,122,VALID,2.15156,
2014-11-20, 00:57:04,VALID,917.621,VALID,0,VALID,95.6662,VALID,0,VALID,20.6585,VALID,161,VALID,0.806641,
2014-11-20, 00:58:04,VALID,917.631,VALID,0,VALID,95.5595,VALID,0,VALID,20.6585,VALID,108,VALID,1.53242,
2014-11-20, 00:59:04,VALID,917.615,VALID,0,VALID,95.4604,VALID,0,VALID,20.6585,VALID,124,VALID,2.12617,
2014-11-20, 01:00:04,VALID,917.606,VALID,0,VALID,95.4223,VALID,0,VALID,20.6585,VALID,126,VALID,1.81172,
2014-11-20, 01:01:04,VALID,917.623,VALID,0,VALID,95.3918,VALID,0,VALID,20.6585,VALID,122,VALID,2.15313,
2014-11-20, 01:02:04,VALID,917.636,VALID,0,VALID,95.3308,VALID,0,VALID,20.6585,VALID,128,VALID,1.8957,
2014-11-20, 01:03:04,VALID,917.62,VALID,0,VALID,95.2698,VALID,0.107441,VALID,20.6585,VALID,132,VALID,2.51133,
2014-11-20, 01:04:04,VALID,917.678,VALID,0,VALID,95.2165,VALID,0,VALID,20.6585,VALID,118,VALID,2.48594,
2014-11-20, 01:05:04,VALID,917.657,VALID,0,VALID,94.9725,VALID,0,VALID,20.717,VALID,122,VALID,2.24336,
2014-11-20, 01:06:04,VALID,917.654,VALID,0,VALID,94.6828,VALID,0,VALID,20.756,VALID,109,VALID,1.42305,
2014-11-20, 01:07:04,VALID,917.603,VALID,0,VALID,94.2712,VALID,0.107441,VALID,20.7349,VALID,113,VALID,1.95273,
2014-11-20, 01:08:04,VALID,917.597,VALID,0,VALID,93.9815,VALID,0.107441,VALID,20.7755,VALID,118,VALID,1.3957,
2014-11-20, 01:09:04,VALID,917.607,VALID,0,VALID,93.7909,VALID,0,VALID,20.756,VALID,96,VALID,1.93438,
2014-11-20, 01:10:04,VALID,917.584,VALID,0.2,VALID,93.6079,VALID,0,VALID,20.756,VALID,84,VALID,1.81641,
2014-11-20, 01:11:04,VALID,917.583,VALID,0,VALID,93.6155,VALID,0,VALID,20.756,VALID,94,VALID,1.5707,
2014-11-20, 01:12:04,VALID,917.566,VALID,0,VALID,93.8061,VALID,0.107441,VALID,20.7365,VALID,86,VALID,1.51602,
2014-11-20, 01:13:04,VALID,917.546,VALID,0,VALID,94.0882,VALID,0,VALID,20.717,VALID,123,VALID,1.11953,
2014-11-20, 01:14:04,VALID,917.541,VALID,0,VALID,94.3474,VALID,0,VALID,20.6975,VALID,117,VALID,1.2543,
2014-11-20, 01:15:04,VALID,917.498,VALID,0,VALID,94.5685,VALID,0,VALID,20.6585,VALID,115,VALID,1.12188,
2014-11-20, 01:16:04,VALID,917.501,VALID,0,VALID,94.7667,VALID,0,VALID,20.639,VALID,120,VALID,1.60117,
2014-11-20, 01:17:04,VALID,917.482,VALID,0,VALID,94.8963,VALID,0,VALID,20.5984,VALID,115,VALID,1.5125,
2014-11-20, 01:18:04,VALID,917.471,VALID,0,VALID,94.9801,VALID,0,VALID,20.5804,VALID,132,VALID,1.59023,
2014-11-20, 01:19:04,VALID,917.427,VALID,0,VALID,95.0335,VALID,0,VALID,20.5804,VALID,113,VALID,0.992188,
2014-11-20, 01:20:04,VALID,917.417,VALID,0,VALID,95.0564,VALID,0,VALID,20.5804,VALID,112,VALID,1.26602,
2014-11-20, 01:21:04,VALID,917.406,VALID,0.2,VALID,95.1021,VALID,0,VALID,20.5804,VALID,113,VALID,1.34492,
2014-11-20, 01:22:04,VALID,917.368,VALID,0,VALID,95.1097,VALID,0,VALID,20.582,VALID,128,VALID,2.06445,
2014-11-20, 01:23:04,VALID,917.422,VALID,0,VALID,95.1936,VALID,0,VALID,20.5609,VALID,136,VALID,0.645703,
2014-11-20, 01:24:04,VALID,917.337,VALID,0,VALID,95.2851,VALID,0,VALID,20.5414,VALID,130,VALID,1.17461,
2014-11-20, 01:25:04,VALID,917.366,VALID,0,VALID,95.4147,VALID,0,VALID,20.5024,VALID,125,VALID,1.09258,
2014-11-20, 01:26:04,VALID,917.345,VALID,0,VALID,95.5519,VALID,0,VALID,20.4845,VALID,122,VALID,1.45938,
2014-11-20, 01:27:04,VALID,917.357,VALID,0,VALID,95.6967,VALID,0,VALID,20.4244,VALID,125,VALID,2.03281,
2014-11-20, 01:28:04,VALID,917.333,VALID,0.2,VALID,95.7806,VALID,0,VALID,20.4244,VALID,130,VALID,1.67773,
2014-11-20, 01:29:04,VALID,917.308,VALID,0,VALID,95.9026,VALID,0,VALID,20.4064,VALID,126,VALID,1.85742,
2014-11-20, 01:30:04,VALID,917.261,VALID,0,VALID,95.9864,VALID,0,VALID,20.3854,VALID,126,VALID,1.85469,
2014-11-20, 01:31:04,VALID,917.208,VALID,0,VALID,96.055,VALID,0,VALID,20.3869,VALID,110,VALID,1.64297,
2014-11-20, 01:32:04,VALID,917.202,VALID,0,VALID,96.1541,VALID,0,VALID,20.3659,VALID,110,VALID,0.992969,
2014-11-20, 01:33:04,VALID,917.144,VALID,0.2,VALID,96.2151,VALID,0,VALID,20.3464,VALID,124,VALID,2.09492,
2014-11-20, 01:34:04,VALID,917.145,VALID,0,VALID,96.299,VALID,0,VALID,20.3269,VALID,120,VALID,1.92227,
2014-11-20, 01:35:04,VALID,917.088,VALID,0,VALID,96.3524,VALID,0,VALID,20.3269,VALID,109,VALID,1.80117,
2014-11-20, 01:36:04,VALID,917.064,VALID,0,VALID,96.421,VALID,0,VALID,20.3074,VALID,105,VALID,1.90391,
2014-11-20, 01:37:04,VALID,917.024,VALID,0,VALID,96.4286,VALID,0,VALID,20.3074,VALID,128,VALID,2.46367,
2014-11-20, 01:38:04,VALID,916.991,VALID,0.2,VALID,96.4591,VALID,0,VALID,20.3479,VALID,125,VALID,1.93242,
2014-11-20, 01:39:04,VALID,916.976,VALID,0,VALID,96.4362,VALID,0,VALID,20.3464,VALID,123,VALID,1.36641,
2014-11-20, 01:40:04,VALID,916.923,VALID,0,VALID,96.4286,VALID,0,VALID,20.3479,VALID,128,VALID,1.58633,
2014-11-20, 01:41:04,VALID,916.923,VALID,0,VALID,96.4438,VALID,0,VALID,20.3269,VALID,112,VALID,1.6875,
2014-11-20, 01:42:04,VALID,916.856,VALID,0,VALID,96.4667,VALID,0,VALID,20.3074,VALID,99,VALID,1.11563,
2014-11-20, 01:43:04,VALID,916.839,VALID,0,VALID,96.5353,VALID,0,VALID,20.3074,VALID,105,VALID,1.52188,
2014-11-20, 01:44:04,VALID,916.789,VALID,0.2,VALID,96.5506,VALID,0,VALID,20.2879,VALID,112,VALID,1.91172,
2014-11-20, 01:45:04,VALID,916.776,VALID,0,VALID,96.6039,VALID,0,VALID,20.2879,VALID,118,VALID,1.03672,
2014-11-20, 01:46:04,VALID,916.72,VALID,0,VALID,96.6573,VALID,0,VALID,20.2684,VALID,113,VALID,1.08164,
2014-11-20, 01:47:04,VALID,916.724,VALID,0,VALID,96.703,VALID,0,VALID,20.2504,VALID,110,VALID,1.87695,
2014-11-20, 01:48:04,VALID,916.696,VALID,0,VALID,96.7488,VALID,0,VALID,20.2489,VALID,111,VALID,1.57187,
2014-11-20, 01:49:04,VALID,916.644,VALID,0,VALID,96.764,VALID,0,VALID,20.2504,VALID,109,VALID,2.09258,
2014-11-20, 01:50:04,VALID,916.616,VALID,0.2,VALID,96.7869,VALID,0,VALID,20.2293,VALID,113,VALID,1.65742,
2014-11-20, 01:51:04,VALID,916.574,VALID,0,VALID,96.8174,VALID,0,VALID,20.2504,VALID,103,VALID,1.75664,
2014-11-20, 01:52:04,VALID,916.558,VALID,0,VALID,96.8326,VALID,0,VALID,20.2293,VALID,112,VALID,1.49531,
2014-11-20, 01:53:04,VALID,916.514,VALID,0,VALID,96.8631,VALID,0,VALID,20.2098,VALID,123,VALID,1.41523,
2014-11-20, 01:54:04,VALID,916.475,VALID,0,VALID,96.8326,VALID,0,VALID,20.2309,VALID,128,VALID,1.80273,
2014-11-20, 01:55:04,VALID,916.422,VALID,0.2,VALID,96.8707,VALID,0,VALID,20.2309,VALID,128,VALID,1.53086,
2014-11-20, 01:56:04,VALID,916.38,VALID,0,VALID,96.8784,VALID,0,VALID,20.2293,VALID,121,VALID,1.19961,
2014-11-20, 01:57:04,VALID,916.345,VALID,0,VALID,96.8631,VALID,0,VALID,20.2293,VALID,128,VALID,1.61641,
2014-11-20, 01:58:04,VALID,916.329,VALID,0,VALID,96.8784,VALID,0,VALID,20.2098,VALID,125,VALID,1.53047,
2014-11-20, 01:59:04,VALID,916.277,VALID,0,VALID,96.8479,VALID,0,VALID,20.2309,VALID,130,VALID,1.37539,
2014-11-20, 02:00:04,VALID,916.284,VALID,0,VALID,96.8784,VALID,0,VALID,20.1903,VALID,121,VALID,1.21484,
2014-11-20, 02:01:04,VALID,916.252,VALID,0.2,VALID,96.8403,VALID,0,VALID,20.2098,VALID,128,VALID,1.28086,
2014-11-20, 02:02:04,VALID,916.241,VALID,0,VALID,96.8784,VALID,0,VALID,20.1903,VALID,118,VALID,1.17461,
2014-11-20, 02:03:04,VALID,916.222,VALID,0,VALID,96.8784,VALID,0,VALID,20.1903,VALID,122,VALID,0.908984,
2014-11-20, 02:04:04,VALID,916.213,VALID,0,VALID,96.9012,VALID,0,VALID,20.1708,VALID,99,VALID,1.15039,
2014-11-20, 02:05:04,VALID,916.182,VALID,0,VALID,96.9089,VALID,0,VALID,20.1513,VALID,105,VALID,1.10664,
2014-11-20, 02:06:04,VALID,916.245,VALID,0,VALID,96.9394,VALID,0,VALID,20.1513,VALID,122,VALID,1.2418,
2014-11-20, 02:07:04,VALID,916.21,VALID,0,VALID,96.9622,VALID,0,VALID,20.1513,VALID,95,VALID,1.12383,
2014-11-20, 02:08:04,VALID,916.224,VALID,0.2,VALID,96.9622,VALID,0,VALID,20.1529,VALID,96,VALID,1.39258,
2014-11-20, 02:09:04,VALID,916.169,VALID,0,VALID,96.9698,VALID,0,VALID,20.1318,VALID,103,VALID,0.876953,
2014-11-20, 02:10:04,VALID,916.213,VALID,0,VALID,96.9927,VALID,0,VALID,20.1123,VALID,113,VALID,1.29453,
2014-11-20, 02:11:04,VALID,916.208,VALID,0,VALID,96.9775,VALID,0,VALID,20.1318,VALID,128,VALID,2.34687,
2014-11-20, 02:12:04,VALID,916.185,VALID,0,VALID,96.9394,VALID,0,VALID,20.1903,VALID,131,VALID,1.58828,
2014-11-20, 02:13:04,VALID,916.142,VALID,0,VALID,96.9241,VALID,0,VALID,20.1708,VALID,127,VALID,1.01992,
2014-11-20, 02:14:04,VALID,916.162,VALID,0,VALID,96.8707,VALID,0,VALID,20.1513,VALID,127,VALID,1.24102,
2014-11-20, 02:15:04,VALID,916.193,VALID,0.2,VALID,96.8098,VALID,0,VALID,20.1919,VALID,134,VALID,0.851953,
2014-11-20, 02:16:04,VALID,916.176,VALID,0,VALID,96.7945,VALID,0,VALID,20.1708,VALID,127,VALID,1.05352,
2014-11-20, 02:17:04,VALID,916.185,VALID,0,VALID,96.7564,VALID,0,VALID,20.1529,VALID,121,VALID,1.44414,
2014-11-20, 02:18:04,VALID,916.172,VALID,0,VALID,96.7793,VALID,0,VALID,20.1724,VALID,116,VALID,0.396875,
2014-11-20, 02:19:04,VALID,916.179,VALID,0,VALID,96.7945,VALID,0,VALID,20.1318,VALID,118,VALID,0.966016,
2014-11-20, 02:20:04,VALID,916.169,VALID,0,VALID,96.7945,VALID,0,VALID,20.1529,VALID,117,VALID,0.296875,
2014-11-20, 02:21:04,VALID,916.169,VALID,0,VALID,96.825,VALID,0,VALID,20.1123,VALID,106,VALID,0.382813,
2014-11-20, 02:22:04,VALID,916.126,VALID,0,VALID,96.8631,VALID,0,VALID,20.0928,VALID,111,VALID,1.10391,
2014-11-20, 02:23:04,VALID,916.122,VALID,0.2,VALID,96.8936,VALID,0,VALID,20.0928,VALID,116,VALID,0.475391,
2014-11-20, 02:24:04,VALID,916.111,VALID,0,VALID,96.9165,VALID,0,VALID,20.0733,VALID,116,VALID,0.330859,
2014-11-20, 02:25:04,VALID,916.104,VALID,0,VALID,96.9317,VALID,0,VALID,20.0538,VALID,116,VALID,0,
2014-11-20, 02:26:04,VALID,916.139,VALID,0,VALID,96.9622,VALID,0,VALID,20.0538,VALID,116,VALID,0,
2014-11-20, 02:27:04,VALID,916.143,VALID,0,VALID,97.0308,VALID,0,VALID,20.0538,VALID,116,VALID,0,
2014-11-20, 02:28:04,VALID,916.114,VALID,0,VALID,97.0766,VALID,0,VALID,20.0148,VALID,116,VALID,0,
2014-11-20, 02:29:04,VALID,916.148,VALID,0,VALID,97.0994,VALID,0,VALID,20.0358,VALID,112,VALID,0.186328,
2014-11-20, 02:30:04,VALID,916.146,VALID,0,VALID,97.1376,VALID,0,VALID,20.0358,VALID,125,VALID,1.53867,
2014-11-20, 02:31:04,VALID,916.131,VALID,0.2,VALID,97.1757,VALID,0,VALID,20.0148,VALID,117,VALID,1.08555,
2014-11-20, 02:32:04,VALID,916.141,VALID,0,VALID,97.2138,VALID,0,VALID,20.0148,VALID,138,VALID,0.692578,
2014-11-20, 02:33:04,VALID,916.122,VALID,0,VALID,97.229,VALID,0,VALID,20.0343,VALID,136,VALID,0.771875,
2014-11-20, 02:34:04,VALID,916.099,VALID,0,VALID,97.2367,VALID,0,VALID,20.0343,VALID,146,VALID,1.34687,
2014-11-20, 02:35:04,VALID,916.081,VALID,0,VALID,97.2595,VALID,0,VALID,20.0749,VALID,142,VALID,1.46367,
2014-11-20, 02:36:04,VALID,916.089,VALID,0,VALID,97.2519,VALID,0,VALID,20.0944,VALID,143,VALID,1.58008,
2014-11-20, 02:37:04,VALID,916.051,VALID,0.2,VALID,97.2595,VALID,0,VALID,20.1334,VALID,135,VALID,2.1293,
2014-11-20, 02:38:04,VALID,916.025,VALID,0,VALID,97.2519,VALID,0,VALID,20.1123,VALID,136,VALID,2.13086,
2014-11-20, 02:39:05,VALID,916.03,VALID,0,VALID,97.2138,VALID,0,VALID,20.1318,VALID,135,VALID,1.10273,
2014-11-20, 02:40:05,VALID,915.987,VALID,0,VALID,97.1757,VALID,0,VALID,20.1318,VALID,142,VALID,1.81719,
2014-11-20, 02:41:05,VALID,915.986,VALID,0,VALID,97.1604,VALID,0,VALID,20.1529,VALID,140,VALID,1.2543,
2014-11-20, 02:42:05,VALID,915.958,VALID,0,VALID,97.1452,VALID,0,VALID,20.1123,VALID,135,VALID,1.34531,
2014-11-20, 02:43:05,VALID,915.923,VALID,0.2,VALID,97.1223,VALID,0,VALID,20.1123,VALID,122,VALID,1.06992,
2014-11-20, 02:44:05,VALID,915.878,VALID,0,VALID,97.0918,VALID,0,VALID,20.1334,VALID,137,VALID,1.27305,
2014-11-20, 02:45:05,VALID,915.892,VALID,0,VALID,97.0918,VALID,0,VALID,20.1123,VALID,141,VALID,0.439453,
2014-11-20, 02:46:05,VALID,915.884,VALID,0,VALID,97.069,VALID,0,VALID,20.1123,VALID,150,VALID,1.27031,
2014-11-20, 02:47:05,VALID,915.854,VALID,0,VALID,97.0613,VALID,0,VALID,20.0928,VALID,153,VALID,1.42188,
2014-11-20, 02:48:05,VALID,915.834,VALID,0,VALID,97.0537,VALID,0,VALID,20.1139,VALID,143,VALID,0.689453,
2014-11-20, 02:49:05,VALID,915.852,VALID,0,VALID,97.0461,VALID,0,VALID,20.0944,VALID,156,VALID,0.733984,
2014-11-20, 02:50:05,VALID,915.832,VALID,0,VALID,97.069,VALID,0,VALID,20.1139,VALID,159,VALID,0,
2014-11-20, 02:51:05,VALID,915.792,VALID,0,VALID,97.0918,VALID,0,VALID,20.0749,VALID,160,VALID,0,
2014-11-20, 02:52:05,VALID,915.822,VALID,0.2,VALID,97.1223,VALID,0,VALID,20.0343,VALID,173,VALID,0.994141,
2014-11-20, 02:53:05,VALID,915.786,VALID,0,VALID,97.1376,VALID,0,VALID,20.0343,VALID,192,VALID,1.13711,
2014-11-20, 02:54:05,VALID,915.758,VALID,0,VALID,97.1681,VALID,0,VALID,20.0343,VALID,186,VALID,1.67617,
2014-11-20, 02:55:05,VALID,915.78,VALID,0,VALID,97.2138,VALID,0,VALID,20.0148,VALID,180,VALID,0.911328,
2014-11-20, 02:56:05,VALID,915.769,VALID,0,VALID,97.2367,VALID,0,VALID,20.0358,VALID,180,VALID,0.142188,
2014-11-20, 02:57:05,VALID,915.743,VALID,0,VALID,97.2748,VALID,0,VALID,20.0358,VALID,180,VALID,0,
2014-11-20, 02:58:05,VALID,915.744,VALID,0,VALID,97.3129,VALID,0,VALID,19.9953,VALID,178,VALID,0,
2014-11-20, 02:59:05,VALID,915.721,VALID,0,VALID,97.3281,VALID,0,VALID,20.0358,VALID,175,VALID,0.835156,
2014-11-20, 03:00:05,VALID,915.677,VALID,0,VALID,97.3663,VALID,0,VALID,20.0358,VALID,155,VALID,0.979297,
2014-11-20, 03:01:05,VALID,915.685,VALID,0,VALID,97.3739,VALID,0,VALID,20.0148,VALID,162,VALID,1.23125,
2014-11-20, 03:02:05,VALID,915.699,VALID,0,VALID,97.4196,VALID,0,VALID,20.0358,VALID,160,VALID,1.36523,
2014-11-20, 03:03:05,VALID,915.642,VALID,0.2,VALID,97.4196,VALID,0,VALID,20.0343,VALID,160,VALID,1.57539,
2014-11-20, 03:04:05,VALID,915.639,VALID,0,VALID,97.4196,VALID,0,VALID,20.0553,VALID,170,VALID,1.7168,
2014-11-20, 03:05:05,VALID,915.634,VALID,0,VALID,97.4577,VALID,0,VALID,20.0733,VALID,151,VALID,0.871484,
2014-11-20, 03:06:05,VALID,915.643,VALID,0,VALID,97.4654,VALID,0,VALID,20.0733,VALID,164,VALID,1.44883,
2014-11-20, 03:07:05,VALID,915.613,VALID,0,VALID,97.4654,VALID,0,VALID,20.0733,VALID,178,VALID,0.894922,
2014-11-20, 03:08:05,VALID,915.615,VALID,0,VALID,97.4654,VALID,0,VALID,20.0733,VALID,155,VALID,1.23125,
2014-11-20, 03:09:05,VALID,915.612,VALID,0,VALID,97.4959,VALID,0,VALID,20.0749,VALID,170,VALID,0.994531,
2014-11-20, 03:10:05,VALID,915.569,VALID,0.2,VALID,97.5111,VALID,0,VALID,20.0944,VALID,155,VALID,0.713281,
2014-11-20, 03:11:05,VALID,915.545,VALID,0,VALID,97.5035,VALID,0,VALID,20.0538,VALID,181,VALID,0.761719,
2014-11-20, 03:12:05,VALID,915.574,VALID,0,VALID,97.5187,VALID,0,VALID,20.0733,VALID,157,VALID,1.01289,
2014-11-20, 03:13:05,VALID,915.549,VALID,0,VALID,97.5035,VALID,0,VALID,20.0733,VALID,162,VALID,1.09023,
2014-11-20, 03:14:05,VALID,915.508,VALID,0,VALID,97.534,VALID,0,VALID,20.0749,VALID,170,VALID,0.729297,
2014-11-20, 03:15:05,VALID,915.515,VALID,0.2,VALID,97.534,VALID,0,VALID,20.0749,VALID,163,VALID,0.943359,
2014-11-20, 03:16:05,VALID,915.514,VALID,0,VALID,97.5721,VALID,0,VALID,20.0538,VALID,156,VALID,0.819141,
2014-11-20, 03:17:05,VALID,915.482,VALID,0,VALID,97.5721,VALID,0,VALID,20.0733,VALID,165,VALID,1.21367,
2014-11-20, 03:18:05,VALID,915.484,VALID,0,VALID,97.534,VALID,0,VALID,20.0749,VALID,171,VALID,0.882813,
2014-11-20, 03:19:05,VALID,915.448,VALID,0,VALID,97.5645,VALID,0,VALID,20.0538,VALID,154,VALID,0.817187,
2014-11-20, 03:20:05,VALID,915.433,VALID,0,VALID,97.5797,VALID,0,VALID,20.0944,VALID,152,VALID,0,
2014-11-20, 03:21:05,VALID,915.436,VALID,0,VALID,97.5873,VALID,0,VALID,20.0538,VALID,173,VALID,1.01719,
2014-11-20, 03:22:05,VALID,915.447,VALID,0.2,VALID,97.595,VALID,0,VALID,20.0553,VALID,172,VALID,0.430078,
2014-11-20, 03:23:05,VALID,915.436,VALID,0,VALID,97.595,VALID,0,VALID,20.0538,VALID,151,VALID,0.140625,
2014-11-20, 03:24:05,VALID,915.433,VALID,0,VALID,97.6026,VALID,0,VALID,20.0553,VALID,154,VALID,0.95625,
2014-11-20, 03:25:05,VALID,915.426,VALID,0,VALID,97.6026,VALID,0,VALID,20.0749,VALID,157,VALID,0.835938,
2014-11-20, 03:26:05,VALID,915.424,VALID,0.2,VALID,97.6102,VALID,0,VALID,20.0553,VALID,161,VALID,1.79648,
2014-11-20, 03:27:05,VALID,915.398,VALID,0,VALID,97.6483,VALID,0,VALID,20.0553,VALID,163,VALID,1.12383,
2014-11-20, 03:28:05,VALID,915.371,VALID,0,VALID,97.6407,VALID,0,VALID,20.0538,VALID,154,VALID,0.732031,
2014-11-20, 03:29:05,VALID,915.338,VALID,0,VALID,97.656,VALID,0,VALID,20.0538,VALID,148,VALID,0.558594,
2014-11-20, 03:30:05,VALID,915.331,VALID,0,VALID,97.6407,VALID,0,VALID,20.0749,VALID,148,VALID,0.848828,
2014-11-20, 03:31:05,VALID,915.335,VALID,0.2,VALID,97.6483,VALID,0,VALID,20.0553,VALID,147,VALID,0.835938,
2014-11-20, 03:32:05,VALID,915.317,VALID,0,VALID,97.6407,VALID,0,VALID,20.0343,VALID,144,VALID,1.00898,
2014-11-20, 03:33:05,VALID,915.344,VALID,0,VALID,97.6483,VALID,0,VALID,20.0343,VALID,141,VALID,0.776953,
2014-11-20, 03:34:05,VALID,915.304,VALID,0,VALID,97.6483,VALID,0,VALID,20.0148,VALID,142,VALID,0.323438,
2014-11-20, 03:35:05,VALID,915.303,VALID,0.2,VALID,97.6712,VALID,0,VALID,20.0358,VALID,142,VALID,0.266797,
2014-11-20, 03:36:05,VALID,915.299,VALID,0,VALID,97.6788,VALID,0,VALID,20.0553,VALID,142,VALID,0.378125,
2014-11-20, 03:37:05,VALID,915.317,VALID,0,VALID,97.6636,VALID,0,VALID,20.0358,VALID,142,VALID,0.0078125,
2014-11-20, 03:38:05,VALID,915.278,VALID,0,VALID,97.6636,VALID,0,VALID,20.0148,VALID,142,VALID,0,
2014-11-20, 03:39:05,VALID,915.281,VALID,0.2,VALID,97.6712,VALID,0,VALID,20.0343,VALID,142,VALID,0,
2014-11-20, 03:40:05,VALID,915.29,VALID,0,VALID,97.6788,VALID,0,VALID,20.0749,VALID,142,VALID,0,
2014-11-20, 03:41:05,VALID,915.258,VALID,0,VALID,97.7017,VALID,0,VALID,20.0749,VALID,142,VALID,0,
2014-11-20, 03:42:05,VALID,915.254,VALID,0,VALID,97.6712,VALID,0,VALID,20.0343,VALID,142,VALID,0.0308594,
2014-11-20, 03:43:05,VALID,915.227,VALID,0,VALID,97.6788,VALID,0,VALID,20.0358,VALID,142,VALID,0.230078,
2014-11-20, 03:44:05,VALID,915.246,VALID,0.2,VALID,97.6941,VALID,0,VALID,19.9953,VALID,142,VALID,0.569531,
2014-11-20, 03:45:05,VALID,915.208,VALID,0,VALID,97.7017,VALID,0,VALID,19.9968,VALID,142,VALID,0.666016,